Location: Bühlhof
(48.7849°N, 8.6361°E)
Time: 00:26:37
(UTC+00:00)

Cosmos 2219 Rocket - Pass Details

Date: 19 January 2026
Orbit: 828 x 844 km, 71.0° (Epoch: 17 February)

Event Time Altitude Azimuth Distance (km) Brightness Sun altitude
Rises 18:37:12 0° 335° (NNW) 3,397 5.6 -25.0°
Reaches altitude 10° 18:41:25 10° 5° (N) 2,456 4.5 -25.7°
Enters shadow 18:41:50 11° 9° (N) 2,402 4.4 -25.7°
